Location: Worth Mountain WMA
(34.9569°N, 81.4819°W)
Time: 16:07:48
(UTC-04:00)

Amateur Radio Satellites - All Passes

Search period start: 20 September 2017 15:37
Search period end: 21 September 2017 15:37
Location: Worth Mountain WMA, 34.9569°N, 81.4819°W

Satellite Date Start Highest point End Downlink Frequencies (MHz)
Time Altitude Azimuth
DX 1 20 Sep 15:43:42 15:47:23 28° 290° (WNW) 15:51:04 434.975-435.025
UKube-1 20 Sep 15:44:11 15:48:16 43° 287° (WNW) 15:52:19 .
YUBILEINY 20 Sep 15:48:16 15:52:26 14° 295° (WNW) 15:56:37 435.215
PCSat 20 Sep 15:53:41 15:59:02 69° 113° (ESE) 16:04:27 145.827
AO-7 20 Sep 15:54:31 16:02:50 76° 70° (ENE) 16:11:09 .
NO-84 20 Sep 15:58:24 16:00:35 15° 324° (NW) 16:02:42 435.350 FM
ITUPSAT 1 20 Sep 16:08:07 16:12:26 32° 98° (E) 16:16:43 437.325
MOZHAYETS 4 20 Sep 16:13:32 16:17:51 37° 98° (E) 16:22:08
ITAMSAT 1 20 Sep 16:28:55 16:34:03 73° 258° (WSW) 16:39:14 435.822/435.867
CUBESAT XI-V 20 Sep 16:32:54 16:33:57 11° 91° (E) 16:35:01 437.345
SO-50 20 Sep 16:33:01 16:36:37 23° 308° (NW) 16:40:14 436.795
BEESAT 20 Sep 16:46:55 16:51:44 89° 109° (ESE) 16:56:31 436.000
RS-15 20 Sep 17:36:45 17:47:09 39° 254° (WSW) 17:57:06 29.354- 29.394
PCSat 20 Sep 17:39:38 17:42:56 16° 311° (NW) 17:46:15 145.827
ITUPSAT 1 20 Sep 17:46:18 17:50:02 23° 292° (WNW) 17:53:45 437.325
XW-2C 20 Sep 17:50:01 17:52:00 14° 68° (ENE) 17:54:00 145.795 - 145.815
AO-7 20 Sep 17:50:36 17:56:12 20° 266° (W) 18:01:50 .
MOZHAYETS 4 20 Sep 17:51:32 17:54:40 18° 293° (WNW) 17:57:49
CUTE-I 20 Sep 17:53:02 17:56:40 19° 66° (ENE) 18:00:18 437.470
LilacSat-2 20 Sep 17:57:10 17:59:52 18° 70° (ENE) 18:02:35 437.200
NUDT-PHONESAT 20 Sep 18:06:52 18:09:05 15° 69° (ENE) 18:11:19 437.300
CUBESAT XI-V 20 Sep 18:07:06 18:11:39 59° 285° (WNW) 18:16:10 437.345
DOVE 4 20 Sep 18:08:13 18:12:49 78° 257° (WSW) 18:17:12 437.250
KAITUO 1B 20 Sep 18:28:21 18:31:41 30° 73° (ENE) 18:35:02 145.475/437.950
KKS-1 20 Sep 18:36:04 18:40:31 85° 285° (WNW) 18:44:58 437.445
CUTE 1.7 + AOD 2 20 Sep 18:41:25 18:42:48 11° 66° (ENE) 18:44:10 437.475
XW-2D 20 Sep 18:48:34 18:52:24 85° 74° (ENE) 18:56:16 145.860 - 145.880
HO-68 20 Sep 19:00:10 19:06:32 37° 66° (ENE) 19:12:56 435.675
XW-2B 20 Sep 19:00:50 19:04:39 68° 260° (W) 19:08:29 145.730 - 145.750
XW-2F 20 Sep 19:03:44 19:07:31 65° 259° (W) 19:11:21 145.980 - 146.000
STARS 20 Sep 19:10:28 19:14:53 88° 290° (WNW) 19:19:18 437.465
XW-2C 20 Sep 19:22:21 19:25:50 33° 262° (W) 19:29:22 145.795 - 145.815
LilacSat-2 20 Sep 19:30:44 19:33:56 25° 264° (W) 19:37:11 437.200
CUTE-I 20 Sep 19:31:12 19:36:18 47° 260° (W) 19:41:25 437.470
NUDT-PHONESAT 20 Sep 19:39:26 19:42:40 28° 263° (W) 19:45:57 437.300
STRAND 1 20 Sep 19:50:22 19:53:47 18° 94° (E) 19:57:10 437.568
SEEDS 20 Sep 19:52:48 19:56:53 48° 74° (ENE) 20:00:58 437.485
JUGNU 20 Sep 19:57:54 19:59:28 11° 166° (SSE) 20:01:02 437.505
KAITUO 1B 20 Sep 20:03:36 20:05:42 14° 266° (W) 20:07:47 145.475/437.950
CUBEBUG 2 20 Sep 20:07:13 20:11:20 62° 76° (ENE) 20:15:35 437.445
CUTE 1.7 + AOD 2 20 Sep 20:13:56 20:18:07 53° 260° (W) 20:22:19 437.475
UWE-3 20 Sep 20:21:28 20:25:32 50° 74° (ENE) 20:29:44 435.000/436.395/437.385
BEESAT 3 20 Sep 20:22:43 20:26:04 26° 112° (ESE) 20:29:27 437.485
AAUSAT CUBESAT 2 20 Sep 20:26:06 20:30:08 50° 75° (ENE) 20:34:11 437.432
Tancredo 1 20 Sep 20:27:53 20:30:24 36° 133° (SE) 20:32:56 437.200
XW-2A 20 Sep 20:47:35 20:50:46 39° 261° (W) 20:54:00 145.665 - 145.685
HO-68 20 Sep 20:47:39 20:54:08 37° 262° (W) 21:00:40 435.675
ISS 20 Sep 21:02:07 21:03:13 11° 126° (SE) 21:04:20 437.550
AO-73 20 Sep 21:15:57 21:20:12 79° 257° (WSW) 21:24:36 145.935
ZACube-1 20 Sep 21:16:44 21:20:58 67° 260° (W) 21:25:19 437.345
Oscar 11 20 Sep 21:19:02 21:23:22 78° 76° (ENE) 21:27:43 .
STRAND 1 20 Sep 21:28:14 21:33:07 45° 288° (WNW) 21:38:00 437.568
SEEDS 20 Sep 21:31:24 21:32:47 11° 268° (W) 21:34:08 437.485
JUGNU 20 Sep 21:44:00 21:47:43 17° 175° (S) 21:51:26 437.505
nSIGHT-1 20 Sep 21:45:53 21:48:57 41° 133° (SE) 21:52:01 .
AO-85 20 Sep 21:58:19 22:02:13 71° 301° (WNW) 22:06:07 145.980
BEESAT 2 20 Sep 21:58:39 22:02:37 78° 298° (WNW) 22:06:41 435.950
BEESAT 3 20 Sep 22:00:23 22:03:34 22° 307° (NW) 22:06:47 437.485
UWE-3 20 Sep 22:01:12 22:02:17 11° 269° (W) 22:03:22 435.000/436.395/437.385
Tancredo 1 20 Sep 22:03:31 22:05:05 14° 329° (NNW) 22:06:40 437.200
AAUSAT CUBESAT 2 20 Sep 22:05:07 22:05:49 10° 269° (W) 22:06:30 437.432
EO-88 20 Sep 22:12:48 22:16:07 33° 73° (ENE) 22:19:28 145.990 - 145.960
FO-29 20 Sep 22:18:30 22:23:53 56° 101° (E) 22:29:52 435.910
DELFI C3 20 Sep 22:25:58 22:29:55 78° 258° (WSW) 22:33:53 145.870
UNISAT 6 20 Sep 22:28:49 22:32:30 23° 95° (E) 22:36:11 437.425
NO-84 20 Sep 22:32:49 22:35:42 82° 47° (NE) 22:38:31 435.350 FM
ISS 20 Sep 22:36:07 22:39:19 52° 320° (NW) 22:42:33 437.550
Max Valier Satellite 20 Sep 22:37:41 22:41:22 74° 260° (W) 22:45:05 145.860
TIGRISAT 20 Sep 22:52:56 22:57:18 38° 98° (E) 23:01:40 435.000
PRISM 20 Sep 22:53:06 22:55:58 18° 95° (E) 22:58:49 437.425
ESTCUBE 1 20 Sep 22:58:53 23:00:50 13° 65° (ENE) 23:02:48 437.505/2401.250
SRMSAT 20 Sep 23:03:55 23:06:06 12° 167° (SSE) 23:08:17 437.500
LO-87 20 Sep 23:20:19 23:23:18 27° 73° (ENE) 23:26:19 145.935 - 145.965
nSIGHT-1 20 Sep 23:23:04 23:25:24 18° 329° (NNW) 23:27:45 .
SO-50 20 Sep 23:27:12 23:29:43 14° 47° (NE) 23:32:14 436.795
JUGNU 20 Sep 23:32:20 23:36:00 17° 185° (S) 23:39:40 437.505
EO-88 20 Sep 23:48:29 23:49:51 12° 267° (W) 23:51:14 145.990 - 145.960
YUBILEINY 21 Sep 00:00:12 00:08:21 42° 77° (ENE) 00:16:27 435.215
UNISAT 6 21 Sep 00:05:05 00:09:08 30° 289° (WNW) 00:13:13 437.425
FO-29 21 Sep 00:05:12 00:08:38 17° 294° (WNW) 00:12:15 435.910
SPROUT 21 Sep 00:06:04 00:08:35 16° 67° (ENE) 00:11:05 437.525
QB50P2 21 Sep 00:15:58 00:18:25 15° 93° (E) 00:20:52 145.880/145.840
PRISM 21 Sep 00:27:46 00:31:12 27° 289° (WNW) 00:34:38 437.425
TIGRISAT 21 Sep 00:30:27 00:33:39 18° 292° (WNW) 00:36:50 435.000
ESTCUBE 1 21 Sep 00:32:41 00:37:07 54° 259° (W) 00:41:34 437.505/2401.250
PCSat 21 Sep 00:45:17 00:49:55 28° 55° (NE) 00:54:30 145.827
SRMSAT 21 Sep 00:50:42 00:54:31 18° 176° (S) 00:58:20 437.500
AIST 2D 21 Sep 00:51:58 00:55:28 62° 283° (WNW) 00:58:55 435.315
NANOSAT C BR1 21 Sep 00:53:36 00:57:28 33° 98° (E) 01:01:20 145.865
LO-87 21 Sep 00:54:58 00:56:44 13° 266° (W) 00:58:30 145.935 - 145.965
DX 1 21 Sep 01:01:43 01:03:36 13° 66° (ENE) 01:05:30 434.975-435.025
SO-50 21 Sep 01:06:00 01:10:34 64° 243° (WSW) 01:15:10 436.795
VELOX 1 21 Sep 01:15:50 01:20:14 79° 77° (ENE) 01:24:39 145.980
JUGNU 21 Sep 01:23:06 01:24:14 11° 195° (SSW) 01:25:21 437.505
DUCHIFAT 1 21 Sep 01:23:36 01:27:51 70° 101° (ESE) 01:32:05 145.980
50 SAT 21 Sep 01:24:21 01:27:03 24° 72° (ENE) 01:29:46 437.505
POLYITAN 1 21 Sep 01:32:24 01:36:41 70° 284° (WNW) 01:40:56 437.675
EO-79 21 Sep 01:37:41 01:41:54 60° 285° (WNW) 01:46:06 145.935-145.965
SPROUT 21 Sep 01:40:13 01:44:07 37° 262° (W) 01:48:03 437.525
QB50P2 21 Sep 01:50:20 01:54:18 37° 287° (WNW) 01:58:15 145.880/145.840
YUBILEINY 21 Sep 01:57:11 02:04:55 37° 273° (W) 02:12:41 435.215
Oscar 19 21 Sep 02:08:32 02:12:44 25° 96° (E) 02:16:54 437.125/150
BUGSAT 1 21 Sep 02:11:42 02:15:52 62° 101° (E) 02:20:03 437.445
M-CUBED/EXP-1 PRIME 21 Sep 02:24:59 02:28:15 56° 289° (WNW) 02:31:25 437.505
PCSat 21 Sep 02:28:25 02:33:18 35° 251° (WSW) 02:38:10 145.827
NANOSAT C BR1 21 Sep 02:30:05 02:32:52 17° 292° (WNW) 02:35:40 145.865
UKube-1 21 Sep 02:34:40 02:38:58 82° 257° (WSW) 02:43:17 .
DX 1 21 Sep 02:35:07 02:39:19 49° 260° (W) 02:43:32 434.975-435.025
SRMSAT 21 Sep 02:39:21 02:42:57 17° 187° (S) 02:46:34 437.500
Tancredo 1 21 Sep 02:52:11 02:52:35 10° 28° (NNE) 02:53:00 437.200
50 SAT 21 Sep 02:57:56 02:59:32 13° 265° (W) 03:01:08 437.505
Gurwin Techsat 1B 21 Sep 03:06:53 03:12:10 65° 102° (ESE) 03:17:25 435.225
ITUPSAT 1 21 Sep 03:11:49 03:15:47 26° 69° (ENE) 03:19:44 437.325
MOZHAYETS 4 21 Sep 03:12:23 03:16:07 25° 70° (ENE) 03:19:53
O/OREOS (USA 219) 21 Sep 03:17:11 03:21:29 49° 106° (ESE) 03:25:51 437.305
Oscar 19 21 Sep 03:47:27 03:52:02 33° 290° (WNW) 03:56:34 437.125/150
BEESAT 21 Sep 03:49:43 03:54:27 70° 75° (ENE) 03:59:12 436.000
AO-7 21 Sep 04:00:41 04:07:43 30° 98° (E) 04:14:42 .
nSIGHT-1 21 Sep 04:16:23 04:18:23 15° 29° (NNE) 04:20:24 .
Tancredo 1 21 Sep 04:24:45 04:27:27 71° 223° (SW) 04:30:08 437.200
ITAMSAT 1 21 Sep 04:45:04 04:50:09 52° 101° (E) 04:55:12 435.822/435.867
Gurwin Techsat 1B 21 Sep 04:48:47 04:51:30 14° 297° (WNW) 04:54:13 435.225
MOZHAYETS 4 21 Sep 04:49:16 04:53:08 26° 264° (W) 04:57:02
ITUPSAT 1 21 Sep 04:49:28 04:53:28 27° 263° (W) 04:57:30 437.325
O/OREOS (USA 219) 21 Sep 04:58:48 05:01:10 14° 302° (WNW) 05:03:33 437.305
CUBESAT XI-V 21 Sep 05:06:24 05:11:07 90° 102° (ESE) 05:15:51 437.345
ISS 21 Sep 05:06:36 05:09:41 36° 37° (NE) 05:12:44 437.550
KKS-1 21 Sep 05:30:31 05:34:51 57° 74° (ENE) 05:39:12 437.445
RS-15 21 Sep 05:41:14 05:52:41 50° 109° (ESE) 06:04:17 29.354- 29.394
nSIGHT-1 21 Sep 05:51:46 05:54:59 59° 225° (SW) 05:58:11 .
AO-7 21 Sep 05:52:43 06:00:40 53° 293° (WNW) 06:08:37 .
STARS 21 Sep 06:03:31 06:07:44 52° 74° (ENE) 06:11:58 437.465
DOVE 4 21 Sep 06:10:02 06:13:52 32° 98° (E) 06:17:50 437.250
BEESAT 3 21 Sep 06:19:01 06:23:00 73° 61° (ENE) 06:26:52 437.485
BEESAT 2 21 Sep 06:19:48 06:22:59 22° 52° (NE) 06:26:07 435.950
ITAMSAT 1 21 Sep 06:25:53 06:29:08 17° 295° (WNW) 06:32:24 435.822/435.867
XW-2D 21 Sep 06:26:35 06:27:40 11° 92° (E) 06:28:45 145.860 - 145.880
AO-85 21 Sep 06:31:40 06:35:51 37° 57° (ENE) 06:40:18 145.980
XW-2B 21 Sep 06:37:45 06:40:01 15° 94° (E) 06:42:16 145.730 - 145.750
XW-2F 21 Sep 06:40:09 06:42:27 15° 94° (E) 06:44:44 145.980 - 146.000
ISS 21 Sep 06:43:42 06:45:56 17° 232° (SW) 06:48:09 437.550
XW-2C 21 Sep 06:58:00 07:01:21 28° 97° (E) 07:04:38 145.795 - 145.815
STRAND 1 21 Sep 07:03:21 07:06:49 19° 66° (ENE) 07:10:18 437.568
LilacSat-2 21 Sep 07:06:29 07:10:07 40° 98° (E) 07:13:42 437.200
KKS-1 21 Sep 07:11:10 07:11:42 10° 268° (W) 07:12:13 437.445
NUDT-PHONESAT 21 Sep 07:12:29 07:15:48 30° 97° (E) 07:19:06 437.300
KAITUO 1B 21 Sep 07:35:54 07:39:39 69° 102° (ESE) 07:43:20 145.475/437.950
STARS 21 Sep 07:43:07 07:44:19 11° 268° (W) 07:45:31 437.465
DOVE 4 21 Sep 07:48:32 07:51:19 17° 291° (WNW) 07:54:11 437.250
CUTE-I 21 Sep 07:51:13 07:56:34 90° 280° (W) 08:01:55 437.470
RS-15 21 Sep 07:53:29 08:05:11 49° 309° (NW) 08:17:01 29.354- 29.394
BEESAT 2 21 Sep 07:57:15 08:00:40 27° 248° (WSW) 08:04:02 435.950
XW-2D 21 Sep 07:58:26 08:02:00 38° 286° (WNW) 08:05:30 145.860 - 145.880
CUBEBUG 2 21 Sep 08:01:42 08:05:01 19° 94° (E) 08:08:21 437.445
CUTE 1.7 + AOD 2 21 Sep 08:02:11 08:05:59 31° 97° (E) 08:09:44 437.475
XW-2B 21 Sep 08:10:55 08:14:13 28° 288° (WNW) 08:17:28 145.730 - 145.750
AO-85 21 Sep 08:12:35 08:16:03 21° 249° (WSW) 08:19:42 145.980
XW-2F 21 Sep 08:13:19 08:16:34 27° 288° (WNW) 08:19:47 145.980 - 146.000
XW-2A 21 Sep 08:13:23 08:15:15 14° 94° (E) 08:17:06 145.665 - 145.685
UWE-3 21 Sep 08:15:23 08:18:00 15° 93° (E) 08:20:35 435.000/436.395/437.385
HO-68 21 Sep 08:18:06 08:25:06 53° 101° (E) 08:32:04 435.675
FO-29 21 Sep 08:30:23 08:33:33 15° 66° (ENE) 08:36:36 435.910
XW-2C 21 Sep 08:32:57 08:35:15 15° 291° (WNW) 08:37:32 145.795 - 145.815
STRAND 1 21 Sep 08:40:47 08:45:37 44° 261° (W) 08:50:29 437.568
LilacSat-2 21 Sep 08:42:39 08:43:57 11° 293° (WNW) 08:45:15 437.200
NUDT-PHONESAT 21 Sep 08:47:21 08:49:22 14° 291° (WNW) 08:51:22 437.300
AO-73 21 Sep 09:07:26 09:11:17 26° 96° (E) 09:15:05 145.935
ZACube-1 21 Sep 09:08:20 09:12:24 30° 97° (E) 09:16:25 437.345
Oscar 11 21 Sep 09:10:29 09:13:30 18° 94° (E) 09:16:29 .
SEEDS 21 Sep 09:15:10 09:19:15 52° 285° (WNW) 09:23:17 437.485
UNISAT 6 21 Sep 09:26:05 09:27:58 13° 65° (ENE) 09:29:52 437.425
CUBEBUG 2 21 Sep 09:37:21 09:41:40 37° 287° (WNW) 09:46:00 437.445
CUTE 1.7 + AOD 2 21 Sep 09:38:42 09:41:33 18° 291° (WNW) 09:44:22 437.475
XW-2A 21 Sep 09:45:07 09:47:56 24° 288° (WNW) 09:50:43 145.665 - 145.685
AAUSAT CUBESAT 2 21 Sep 09:46:32 09:50:32 52° 285° (WNW) 09:54:30 437.432
TIGRISAT 21 Sep 09:49:03 09:52:18 21° 69° (ENE) 09:55:36 435.000
UWE-3 21 Sep 09:50:08 09:54:36 46° 286° (WNW) 09:59:03 435.000/436.395/437.385
HO-68 21 Sep 10:06:37 10:12:23 27° 297° (WNW) 10:18:09 435.675
DELFI C3 21 Sep 10:07:11 10:09:35 16° 94° (E) 10:12:00 145.870
FO-29 21 Sep 10:12:18 10:18:15 61° 258° (WSW) 10:23:38 435.910
Max Valier Satellite 21 Sep 10:12:26 10:14:05 12° 93° (E) 10:15:44 145.860
RS-15 21 Sep 10:14:36 10:21:54 17° 339° (NNW) 10:29:09 29.354- 29.394
AO-73 21 Sep 10:43:38 10:47:21 25° 290° (WNW) 10:51:03 145.935
ZACube-1 21 Sep 10:44:56 10:48:26 22° 291° (WNW) 10:51:55 437.345
Oscar 11 21 Sep 10:45:48 10:49:39 31° 288° (WNW) 10:53:28 .
UNISAT 6 21 Sep 11:00:02 11:04:11 48° 261° (W) 11:08:26 437.425
PRISM 21 Sep 11:12:42 11:16:46 63° 258° (WSW) 11:20:50 437.425
EO-88 21 Sep 11:17:38 11:21:17 73° 100° (E) 11:24:55 145.990 - 145.960
AIST 2D 21 Sep 11:23:04 11:25:59 24° 72° (ENE) 11:28:54 435.315
TIGRISAT 21 Sep 11:25:09 11:28:47 27° 264° (W) 11:32:31 435.000
DELFI C3 21 Sep 11:40:58 11:44:21 29° 288° (WNW) 11:47:44 145.870
NANOSAT C BR1 21 Sep 11:43:19 11:45:58 17° 68° (ENE) 11:48:37 145.865
Max Valier Satellite 21 Sep 11:44:36 11:47:59 33° 287° (WNW) 11:51:21 145.860
DUCHIFAT 1 21 Sep 12:12:08 12:15:48 31° 72° (ENE) 12:19:30 145.980
POLYITAN 1 21 Sep 12:21:16 12:25:21 53° 74° (ENE) 12:29:28 437.675
LO-87 21 Sep 12:22:49 12:26:21 54° 100° (E) 12:29:53 145.935 - 145.965
EO-79 21 Sep 12:26:18 12:30:26 62° 75° (ENE) 12:34:36 145.935-145.965
ESTCUBE 1 21 Sep 12:28:25 12:32:38 39° 99° (E) 12:36:48 437.505/2401.250
RS-15 21 Sep 12:35:13 12:41:53 16° 18° (NNE) 12:48:24 29.354- 29.394
QB50P2 21 Sep 12:38:51 12:43:03 81° 259° (W) 12:47:18 145.880/145.840
YUBILEINY 21 Sep 12:56:36 13:04:59 54° 90° (E) 13:13:19 435.215
AIST 2D 21 Sep 12:57:02 12:59:08 15° 266° (W) 13:01:13 435.315
BUGSAT 1 21 Sep 12:58:30 13:01:49 26° 71° (ENE) 13:05:11 437.445
M-CUBED/EXP-1 PRIME 21 Sep 13:06:19 13:10:46 89° 236° (SW) 13:14:57 437.505
VELOX 1 21 Sep 13:09:58 13:13:02 18° 95° (E) 13:16:06 145.980
NANOSAT C BR1 21 Sep 13:17:35 13:21:22 33° 262° (W) 13:25:11 145.865
Oscar 19 21 Sep 13:22:09 13:26:27 27° 68° (ENE) 13:30:46 437.125/150
SPROUT 21 Sep 13:28:36 13:32:43 44° 99° (E) 13:36:48 437.525
O/OREOS (USA 219) 21 Sep 13:30:15 13:34:46 55° 68° (ENE) 13:39:17 437.305
NO-84 21 Sep 13:45:13 13:49:00 42° 129° (SE) 13:52:30 435.350 FM
DUCHIFAT 1 21 Sep 13:48:45 13:51:29 17° 266° (W) 13:54:14 145.980
ESTCUBE 1 21 Sep 14:06:16 14:09:04 17° 293° (WNW) 14:11:52 437.505/2401.250
50 SAT 21 Sep 14:19:29 14:22:33 35° 99° (E) 14:25:36 437.505
Gurwin Techsat 1B 21 Sep 14:24:33 14:29:50 74° 75° (ENE) 14:35:09 435.225
UKube-1 21 Sep 14:25:36 14:28:50 20° 96° (E) 14:32:02 .
DX 1 21 Sep 14:26:29 14:30:26 34° 99° (E) 14:34:22 434.975-435.025
BUGSAT 1 21 Sep 14:34:17 14:37:08 19° 265° (W) 14:40:00 437.445
VELOX 1 21 Sep 14:45:36 14:49:30 32° 289° (WNW) 14:53:23 145.980
RS-15 21 Sep 14:47:34 14:58:53 44° 49° (NE) 15:09:33 29.354- 29.394
YUBILEINY 21 Sep 14:54:49 15:02:03 29° 288° (WNW) 15:09:21 435.215
AO-7 21 Sep 14:56:18 15:03:25 33° 61° (ENE) 15:10:31 .
Oscar 19 21 Sep 15:01:02 15:05:36 31° 263° (W) 15:10:12 437.125/150
SPROUT 21 Sep 15:06:02 15:08:11 14° 293° (WNW) 15:10:19 437.525
O/OREOS (USA 219) 21 Sep 15:12:10 15:13:37 11° 262° (W) 15:15:03 437.305
SO-50 21 Sep 15:16:47 15:21:17 89° 318° (NW) 15:25:48 436.795
PCSat 21 Sep 15:23:03 15:28:13 48° 111° (ESE) 15:33:25 145.827
NO-84 21 Sep 15:23:44 15:26:29 19° 321° (NW) 15:29:05 435.350 FM
